FW9889 Weather Reports


time (UTC)temp
C
wind
direction
speed
KPH
gust
KPH
rain 1hr
cm
rain 24hr
cm
rain mn
cm
humidity
%
barometer
mb
20260505170534 27 185 1.6 11.3 0.00 0.00 0.00 50 1010.0
20260505170104 26 190 4.8 12.9 0.00 0.00 0.00 44 1010.0
20260505165534 26 192 4.8 12.9 0.00 0.00 0.00 44 1010.1
20260505165031 26 175 4.8 12.9 0.00 0.00 0.00 47 1010.1
20260505164544 26 213 6.4 12.9 0.00 0.00 0.00 44 1010.1
20260505164034 26 177 4.8 11.3 0.00 0.00 0.00 43 1010.1
20260505163531 26 212 1.6 11.3 0.00 0.00 0.00 46 1010.2
20260505163046 26 184 3.2 17.7 0.00 0.00 0.00 46 1010.2
20260505162533 26 198 3.2 17.7 0.00 0.00 0.00 44 1010.2
20260505162034 26 194 4.8 14.5 0.00 0.00 0.00 44 1010.3
20260505161547 26 217 6.4 14.5 0.00 0.00 0.00 43 1010.4
20260505161031 26 187 6.4 14.5 0.00 0.00 0.00 42 1010.3
20260505160534 26 159 1.6 14.5 0.00 0.00 0.00 46 1010.4
20260505153100 25 219 4.8 11.3 0.00 0.00 0.00 46 1010.9
20260505152533 24 166 4.8 12.9 0.00 0.00 0.00 50 1010.9
20260505152031 25 158 6.4 12.9 0.00 0.00 0.00 47 1010.9
20260505151559 24 157 3.2 11.3 0.00 0.00 0.00 53 1010.9
20260505151031 23 175 4.8 11.3 0.00 0.00 0.00 49 1011.0
20260505150537 23 173 3.2 14.5 0.00 0.00 0.00 50 1011.0
20260505140531 21 165 1.6 8.0 0.00 0.00 0.00 59 1011.5
20260505125032 18 173 0.0 6.4 0.00 0.00 0.00 70 1011.7
20260505124550 17 189 3.2 8.0 0.00 0.00 0.00 69 1011.6
20260505124032 17 199 1.6 8.0 0.00 0.00 0.00 70 1011.5
20260505123533 17 165 1.6 6.4 0.00 0.00 0.00 71 1011.5
20260505123054 17 171 1.6 6.4 0.00 0.00 0.00 72 1011.4
20260505122532 16 173 1.6 8.0 0.00 0.00 0.00 72 1011.4
20260505122034 16 169 3.2 8.0 0.00 0.00 0.00 73 1011.4
20260505121558 16 184 1.6 4.8 0.00 0.00 0.00 75 1011.4
20260505121032 16 0 0.0 4.8 0.00 0.00 0.00 75 1011.5
20260505120535 15 181 1.6 4.8 0.00 0.00 0.00 76 1011.6
20260505120048 15 0 1.6 4.8 0.00 0.00 0.00 78 1011.5
20260505115535 15 205 1.6 4.8 0.00 0.00 0.00 80 1011.4
20260505115031 14 168 1.6 3.2 0.00 0.00 0.00 82 1011.5
20260505114551 13 175 1.6 3.2 0.00 0.00 0.00 84 1011.5
20260505114032 13 0 0.0 1.6 0.00 0.00 0.00 86 1011.5
20260505113529 13 0 0.0 0.0 0.00 0.00 0.00 86 1011.4
20260505113043 12 0 0.0 0.0 0.00 0.00 0.00 87 1011.4
20260505112532 12 0 0.0 0.0 0.00 0.00 0.00 87 1011.3
20260505112032 12 0 0.0 0.0 0.00 0.00 0.00 87 1011.4
20260505111544 11 0 0.0 0.0 0.00 0.00 0.00 87 1011.3
20260505111032 11 0 0.0 0.0 0.00 0.00 0.00 86 1011.3
20260505110532 11 0 0.0 0.0 0.00 0.00 0.00 86 1011.4
20260505102031 11 0 0.0 3.2 0.00 0.00 0.00 84 1011.3
20260505101553 11 0 0.0 3.2 0.00 0.00 0.00 83 1011.2
20260505101032 11 0 0.0 1.6 0.00 0.00 0.00 83 1011.2
20260505100533 11 0 0.0 1.6 0.00 0.00 0.00 83 1011.1
20260505100041 11 0 0.0 1.6 0.00 0.00 0.00 83 1011.2
20260505095532 11 0 0.0 1.6 0.00 0.00 0.00 83 1011.5
20260505095031 11 0 0.0 1.6 0.00 0.00 0.00 83 1011.3
20260505094546 11 0 0.0 1.6 0.00 0.00 0.00 83 1011.2
20260505094031 11 0 0.0 1.6 0.00 0.00 0.00 83 1011.3
20260505093531 11 0 0.0 1.6 0.00 0.00 0.00 83 1011.2
20260505093047 11 0 0.0 1.6 0.00 0.00 0.00 83 1011.1
20260505092531 11 0 0.0 1.6 0.00 0.00 0.00 83 1011.0
20260505092031 11 229 0.0 1.6 0.00 0.00 0.00 83 1010.9
20260505091547 11 0 0.0 1.6 0.00 0.00 0.00 83 1010.7
20260505091033 11 0 0.0 1.6 0.00 0.00 0.00 83 1010.7
20260505090530 12 0 0.0 1.6 0.00 0.00 0.00 82 1010.6
20260505090057 12 0 0.0 1.6 0.00 0.00 0.00 82 1010.6
20260505085531 12 0 0.0 0.0 0.00 0.00 0.00 82 1010.6
20260505085035 12 0 0.0 0.0 0.00 0.00 0.00 82 1010.6
20260505084551 12 0 0.0 0.0 0.00 0.00 0.00 82 1010.6
20260505084030 12 0 0.0 0.0 0.00 0.00 0.00 82 1010.5
20260505083533 12 0 0.0 0.0 0.00 0.00 0.00 83 1010.5
20260505083055 12 0 0.0 0.0 0.00 0.00 0.00 83 1010.5
20260505082534 12 0 0.0 0.0 0.00 0.00 0.00 83 1010.6
20260505082031 12 0 0.0 1.6 0.00 0.00 0.00 82 1010.7
20260505081550 12 0 0.0 1.6 0.00 0.00 0.00 82 1010.6
20260505081034 12 0 0.0 1.6 0.00 0.00 0.00 82 1010.7
20260505080531 12 0 0.0 1.6 0.00 0.00 0.00 82 1010.7
20260505080049 12 0 0.0 1.6 0.00 0.00 0.00 82 1010.7
20260505075537 12 0 0.0 1.6 0.00 0.00 0.00 82 1010.7
20260505075030 12 246 0.0 3.2 0.00 0.00 0.00 81 1010.8
20260505074545 12 0 0.0 3.2 0.00 0.00 0.00 80 1010.7
20260505074034 12 0 0.0 3.2 0.00 0.00 0.00 79 1010.6
20260505073534 12 0 0.0 0.0 0.00 0.00 0.00 77 1010.7
20260505073044 12 0 0.0 0.0 0.00 0.00 0.00 76 1010.6
20260505072535 12 0 0.0 0.0 0.00 0.00 0.00 75 1010.6
20260505072031 12 0 0.0 0.0 0.00 0.00 0.00 75 1010.5
20260505071546 12 0 0.0 0.0 0.00 0.00 0.00 75 1010.4
20260505071031 12 0 0.0 0.0 0.00 0.00 0.00 75 1010.4
20260505070533 12 0 0.0 0.0 0.00 0.00 0.00 75 1010.5
20260505070045 12 0 0.0 0.0 0.00 0.00 0.00 76 1010.5
20260505065531 12 0 0.0 0.0 0.00 0.00 0.00 76 1010.4
20260505065033 12 0 0.0 0.0 0.00 0.00 0.00 76 1010.5
20260505064543 12 0 0.0 1.6 0.00 0.00 0.00 75 1010.4
20260505064030 12 0 0.0 1.6 0.00 0.00 0.00 75 1010.5
20260505063530 12 0 0.0 1.6 0.00 0.00 0.00 75 1010.5
20260505063043 12 0 0.0 1.6 0.00 0.00 0.00 74 1010.6
20260505062534 12 0 0.0 1.6 0.00 0.00 0.00 74 1010.5
20260505062034 12 0 0.0 3.2 0.00 0.00 0.00 74 1010.5
20260505061548 12 252 0.0 3.2 0.00 0.00 0.00 73 1010.5
20260505061032 12 196 0.0 3.2 0.00 0.00 0.00 73 1010.5
20260505060531 13 0 0.0 3.2 0.00 0.00 0.00 73 1010.4
20260505060052 13 0 0.0 3.2 0.00 0.00 0.00 72 1010.4
20260505055533 13 0 0.0 3.2 0.00 0.00 0.00 72 1010.4
20260505055034 13 0 0.0 6.4 0.00 0.00 0.00 72 1010.3
20260505054550 13 184 0.0 6.4 0.00 0.00 0.00 72 1010.3
20260505054034 13 192 1.6 6.4 0.00 0.00 0.00 72 1010.4
20260505053533 13 182 1.6 6.4 0.00 0.00 0.00 72 1010.5
20260505053049 13 186 1.6 4.8 0.00 0.00 0.00 72 1010.6
20260505052531 13 192 1.6 4.8 0.00 0.00 0.00 71 1010.5
20260505052031 13 167 0.0 4.8 0.00 0.00 0.00 71 1010.7
20260505051545 13 0 1.6 4.8 0.00 0.00 0.00 71 1010.7
20260505051031 13 0 0.0 4.8 0.00 0.00 0.00 70 1010.7
20260505050535 13 194 0.0 4.8 0.00 0.00 0.00 70 1010.7
20260505041546 13 195 1.6 6.4 0.00 0.00 0.00 67 1010.6
20260505041031 13 195 1.6 4.8 0.00 0.00 0.00 67 1010.7
20260505040531 13 0 0.0 3.2 0.00 0.00 0.00 66 1010.6
20260505040045 13 180 0.0 3.2 0.00 0.00 0.00 66 1010.7
20260505035530 13 0 0.0 3.2 0.00 0.00 0.00 65 1010.6
20260505035034 13 0 0.0 1.6 0.00 0.00 0.00 65 1010.7
20260505034543 13 0 0.0 1.6 0.00 0.00 0.00 64 1010.6
20260505034036 13 0 0.0 1.6 0.00 0.00 0.00 64 1010.6
20260505033531 13 0 0.0 1.6 0.00 0.00 0.00 63 1010.7
20260505033108 13 0 0.0 0.0 0.00 0.00 0.00 63 1010.7
20260505032530 13 0 0.0 0.0 0.00 0.00 0.00 62 1010.7
20260505032031 13 0 0.0 0.0 0.00 0.00 0.00 62 1010.8
20260505031545 13 0 0.0 0.0 0.00 0.00 0.00 62 1010.7
20260505031035 13 0 0.0 1.6 0.00 0.00 0.00 61 1010.8
20260505030536 13 0 0.0 1.6 0.00 0.00 0.00 61 1010.8
20260505030046 13 0 0.0 1.6 0.00 0.00 0.00 61 1010.9
20260505025531 13 0 0.0 1.6 0.00 0.00 0.00 61 1010.9
20260505025034 13 0 0.0 0.0 0.00 0.00 0.00 60 1010.9
20260505024543 13 0 0.0 1.6 0.00 0.00 0.00 60 1011.0
20260505024034 13 0 0.0 1.6 0.00 0.00 0.00 60 1011.0
20260505023534 13 0 0.0 1.6 0.00 0.00 0.00 60 1011.0
20260505023057 14 0 0.0 1.6 0.00 0.00 0.00 60 1011.1
20260505022535 14 0 0.0 1.6 0.00 0.00 0.00 60 1011.0
20260505022109 14 0 0.0 1.6 0.00 0.00 0.00 60 1011.0
20260505021545 14 0 0.0 1.6 0.00 0.00 0.00 59 1011.0
20260505021034 14 0 0.0 1.6 0.00 0.00 0.00 59 1010.9
20260505020534 14 0 0.0 1.6 0.00 0.00 0.00 59 1011.0
20260505020051 14 0 0.0 0.0 0.00 0.00 0.00 58 1011.0
20260505015531 14 0 0.0 3.2 0.00 0.00 0.00 58 1011.1
20260505015033 14 0 0.0 3.2 0.00 0.00 0.00 58 1011.0
20260505014546 14 0 0.0 1.6 0.00 0.00 0.00 58 1010.9
20260505014033 14 0 0.0 1.6 0.00 0.00 0.00 57 1010.9
20260505013531 14 0 0.0 1.6 0.00 0.00 0.00 57 1010.9
20260505013045 15 0 0.0 1.6 0.00 0.00 0.00 57 1010.8
20260505012535 15 0 0.0 1.6 0.00 0.00 0.00 57 1010.7
20260505012035 15 0 0.0 0.0 0.00 0.00 0.00 56 1010.7
20260505011552 15 0 0.0 1.6 0.00 0.00 0.00 56 1010.7
20260505011034 15 0 0.0 1.6 0.00 0.00 0.00 56 1010.7
20260505010534 15 0 0.0 1.6 0.00 0.00 0.00 55 1010.6
20260505010046 15 0 0.0 1.6 0.00 0.00 0.00 55 1010.5
20260505005534 15 0 0.0 1.6 0.00 0.00 0.00 56 1010.4
20260505005035 15 0 0.0 1.6 0.00 0.00 0.00 56 1010.3
20260505004548 15 0 0.0 0.0 0.00 0.00 0.00 56 1010.3
20260505004034 15 0 0.0 0.0 0.00 0.00 0.00 56 1010.3
20260505003534 15 0 0.0 0.0 0.00 0.00 0.00 55 1010.2
20260505003049 15 0 0.0 0.0 0.00 0.00 0.00 53 1010.2
20260505002534 16 0 0.0 0.0 0.00 0.00 0.00 53 1010.2
20260505002031 16 0 0.0 0.0 0.00 0.00 0.00 53 1010.1
20260505001546 16 0 0.0 0.0 0.00 0.00 0.00 51 1010.1
20260505001034 17 0 0.0 0.0 0.00 0.00 0.00 50 1010.1
20260505000531 17 0 0.0 1.6 0.00 0.00 0.00 48 1010.1
20260505000048 17 0 0.0 4.8 0.00 0.00 0.00 46 1010.0
20260504235534 18 0 0.0 4.8 0.00 0.00 0.00 46 1010.0
20260504235034 18 169 1.6 4.8 0.00 0.00 0.00 44 1009.9
20260504234613 18 196 1.6 6.4 0.00 0.00 0.00 44 1009.8
20260504234034 18 187 1.6 8.0 0.00 0.00 0.00 44 1009.8
20260504233534 18 169 1.6 8.0 0.00 0.00 0.00 43 1009.7
20260504233048 18 157 3.2 6.4 0.00 0.00 0.00 43 1009.6
20260504232535 19 216 1.6 6.4 0.00 0.00 0.00 43 1009.7
20260504232034 19 198 1.6 6.4 0.00 0.00 0.00 43 1009.6
20260504231554 19 186 1.6 6.4 0.00 0.00 0.00 43 1009.6
20260504231034 19 218 1.6 8.0 0.00 0.00 0.00 42 1009.5
20260504230531 20 192 1.6 8.0 0.00 0.00 0.00 42 1009.5
20260504230049 20 182 3.2 9.7 0.00 0.00 0.00 41 1009.5
20260504225535 20 183 3.2 11.3 0.00 0.00 0.00 41 1009.6
20260504225034 20 165 4.8 11.3 0.00 0.00 0.00 41 1009.5
20260504224544 20 178 4.8 11.3 0.00 0.00 0.00 40 1009.5
20260504224034 20 221 4.8 11.3 0.00 0.00 0.00 40 1009.5
20260504223534 20 215 1.6 8.0 0.00 0.00 0.00 40 1009.5
20260504223042 20 160 3.2 11.3 0.00 0.00 0.00 40 1009.5
20260504222530 21 160 3.2 11.3 0.00 0.00 0.00 39 1009.5
20260504222035 21 199 4.8 9.7 0.00 0.00 0.00 39 1009.5
20260504221552 21 195 4.8 9.7 0.00 0.00 0.00 38 1009.5
20260504221036 21 192 3.2 9.7 0.00 0.00 0.00 40 1009.5
20260504220534 21 171 4.8 9.7 0.00 0.00 0.00 39 1009.5
20260504220050 21 161 3.2 9.7 0.00 0.00 0.00 39 1009.4
20260504215532 21 167 1.6 9.7 0.00 0.00 0.00 38 1009.7
20260504215031 21 178 3.2 9.7 0.00 0.00 0.00 38 1009.7
20260504214549 21 192 0.0 9.7 0.00 0.00 0.00 39 1009.8
20260504214034 21 176 3.2 9.7 0.00 0.00 0.00 39 1009.7
20260504213534 21 208 3.2 9.7 0.00 0.00 0.00 37 1009.7
20260504213051 21 178 4.8 9.7 0.00 0.00 0.00 41 1009.8
20260504212535 21 355 1.6 9.7 0.00 0.00 0.00 41 1009.8
20260504212034 21 196 4.8 9.7 0.00 0.00 0.00 38 1009.7
20260504211546 21 164 3.2 11.3 0.00 0.00 0.00 39 1009.7
20260504211031 21 138 1.6 14.5 0.00 0.00 0.00 38 1009.7
20260504210534 21 195 4.8 14.5 0.00 0.00 0.00 36 1009.8
20260504210053 21 200 3.2 14.5 0.00 0.00 0.00 39 1010.0
20260504205535 21 171 4.8 14.5 0.00 0.00 0.00 37 1010.0
20260504205035 21 173 6.4 14.5 0.00 0.00 0.00 37 1009.9
20260504204622 21 184 1.6 14.5 0.00 0.00 0.00 39 1010.0
20260504204034 21 179 4.8 14.5 0.00 0.00 0.00 38 1010.0
20260504203535 21 232 4.8 9.7 0.00 0.00 0.00 38 1010.0
20260504203044 21 86 3.2 9.7 0.00 0.00 0.00 40 1009.9
20260504202534 21 174 1.6 11.3 0.00 0.00 0.00 38 1010.0
20260504202035 21 194 4.8 11.3 0.00 0.00 0.00 38 1010.0
20260504201542 21 209 3.2 11.3 0.00 0.00 0.00 36 1009.9
20260504201031 21 223 3.2 11.3 0.00 0.00 0.00 38 1010.1
20260504200535 21 165 3.2 12.9 0.00 0.00 0.00 36 1010.1
20260504200053 21 176 6.4 12.9 0.00 0.00 0.00 37 1010.1
20260504195615 22 188 4.8 9.7 0.00 0.00 0.00 38 1010.2
20260504195036 21 194 4.8 9.7 0.00 0.00 0.00 37 1010.1
20260504194550 21 178 3.2 12.9 0.00 0.00 0.00 39 1010.1
20260504194031 21 149 3.2 12.9 0.00 0.00 0.00 39 1010.1
20260504193530 22 165 3.2 14.5 0.00 0.00 0.00 39 1010.2
20260504193047 21 185 4.8 14.5 0.00 0.00 0.00 37 1010.2
20260504192534 21 200 6.4 11.3 0.00 0.00 0.00 37 1010.2
20260504192034 22 179 1.6 11.3 0.00 0.00 0.00 41 1010.3
20260504191546 21 166 3.2 12.9 0.00 0.00 0.00 40 1010.3
20260504191034 21 155 4.8 12.9 0.00 0.00 0.00 37 1010.4
20260504190534 21 148 4.8 12.9 0.00 0.00 0.00 36 1010.3
20260504190058 21 199 6.4 14.5 0.00 0.00 0.00 37 1010.5
20260504185534 21 192 3.2 14.5 0.00 0.00 0.00 37 1010.7
20260504185031 21 153 3.2 11.3 0.00 0.00 0.00 39 1010.7
20260504184559 21 175 3.2 12.9 0.00 0.00 0.00 39 1010.9
20260504184031 21 174 6.4 12.9 0.00 0.00 0.00 38 1010.9
20260504183533 22 125 1.6 9.7 0.00 0.00 0.00 38 1010.9
20260504183057 22 202 1.6 11.3 0.00 0.00 0.00 45 1011.1
20260504182537 21 191 3.2 11.3 0.00 0.00 0.00 38 1011.1
20260504182034 21 238 3.2 11.3 0.00 0.00 0.00 42 1011.1
20260504181549 21 182 3.2 9.7 0.00 0.00 0.00 37 1011.1
20260504181035 21 293 3.2 11.3 0.00 0.00 0.00 36 1011.2
20260504180535 21 214 4.8 11.3 0.00 0.00 0.00 36 1011.2
20260504180050 21 205 4.8 14.5 0.00 0.00 0.00 37 1011.5
20260504175535 21 144 3.2 14.5 0.00 0.00 0.00 41 1011.5
20260504175033 21 192 3.2 11.3 0.00 0.00 0.00 46 1011.6
20260504174551 21 198 6.4 11.3 0.00 0.00 0.00 38 1011.6
20260504174031 21 250 3.2 12.9 0.00 0.00 0.00 42 1011.7
20260504173533 21 170 3.2 12.9 0.00 0.00 0.00 38 1011.6
20260504173045 21 173 3.2 9.7 0.00 0.00 0.00 39 1011.7
20260504172530 21 274 4.8 11.3 0.00 0.00 0.00 42 1011.7
20260504172031 20 33 1.6 12.9 0.00 0.00 0.00 43 1011.8
20260504171548 20 171 4.8 16.1 0.00 0.00 0.00 41 1011.8
20260504171031 20 194 3.2 16.1 0.00 0.00 0.00 42 1011.8